BJK9260 PHOG-KSLC

Flight info

Callsign BJK9260
Flight time N/A
Altitude 39000
Route OGG CLUTS R465 CINNY OAK MOGEE Q124 SLOWN FLECC YUTES2
Aircraft A332/H-VGDW/C

Departure

Time 2026-04-30 21:04
Airport Kahului International Airport (PHOG)

Arrival

Time N/A
Airport Salt Lake City International Airport (KSLC)
Time Latitude Longitude Altitude Speed Heading
2026-04-30 21:00 20.88963 -156.43852 36 ft 0 kts 34°
2026-04-30 21:01 20.88964 -156.43852 36 ft 0 kts 34°
2026-04-30 21:02 20.88969 -156.43847 36 ft 2 kts 37°
2026-04-30 21:02 20.88979 -156.43834 36 ft 3 kts 53°
2026-04-30 21:02 20.88987 -156.43811 36 ft 4 kts 77°
2026-04-30 21:02 20.88993 -156.43777 36 ft 5 kts 83°
2026-04-30 21:03 20.88987 -156.43734 36 ft 6 kts 108°
2026-04-30 21:03 20.88966 -156.43685 36 ft 8 kts 116°
2026-04-30 21:03 20.88944 -156.43628 35 ft 6 kts 94°
2026-04-30 21:03 20.88971 -156.43593 36 ft 11 kts 37°
2026-04-30 21:04 20.89191 -156.43430 35 ft 69 kts 34°
2026-04-30 21:04 20.89741 -156.43020 33 ft 125 kts 34°
2026-04-30 21:04 20.91458 -156.41755 1182 ft 150 kts 33°
2026-04-30 21:05 20.92328 -156.41107 1896 ft 159 kts 36°
2026-04-30 21:05 20.93299 -156.40339 2207 ft 191 kts 38°
2026-04-30 21:05 20.94449 -156.39379 2456 ft 222 kts 39°
2026-04-30 21:05 20.95691 -156.38324 2936 ft 238 kts 40°
2026-04-30 21:06 20.97038 -156.37183 3650 ft 246 kts 41°
2026-04-30 21:06 20.98381 -156.36050 4533 ft 247 kts 40°
2026-04-30 21:06 20.99737 -156.34915 5295 ft 254 kts 41°
2026-04-30 21:06 21.01138 -156.33748 6123 ft 257 kts 40°
2026-04-30 21:07 21.02568 -156.32561 6877 ft 263 kts 39°
2026-04-30 21:07 21.04021 -156.31358 7700 ft 266 kts 39°
2026-04-30 21:07 21.05489 -156.30144 8556 ft 269 kts 39°
2026-04-30 21:07 21.06973 -156.28917 9476 ft 270 kts 39°
2026-04-30 21:08 21.08476 -156.27671 10204 ft 278 kts 39°
2026-04-30 21:08 21.10057 -156.26357 10547 ft 298 kts 39°
2026-04-30 21:08 21.11194 -156.25410 10719 ft 313 kts 38°
2026-04-30 21:08 21.12969 -156.23935 10978 ft 334 kts 38°
2026-04-30 21:09 21.14834 -156.22386 11260 ft 352 kts 38°
2026-04-30 21:09 21.16789 -156.20761 11847 ft 359 kts 38°
2026-04-30 21:09 21.18776 -156.19108 12496 ft 364 kts 38°
2026-04-30 21:09 21.20778 -156.17444 13182 ft 368 kts 38°
2026-04-30 21:10 21.22816 -156.15749 13907 ft 371 kts 38°
2026-04-30 21:10 21.24865 -156.14043 14489 ft 375 kts 37°
2026-04-30 21:10 21.26939 -156.12316 15070 ft 379 kts 37°
2026-04-30 21:10 21.29028 -156.10576 15668 ft 382 kts 37°
2026-04-30 21:11 21.31138 -156.08815 16248 ft 386 kts 37°
2026-04-30 21:11 21.33260 -156.07044 16874 ft 388 kts 37°
2026-04-30 21:11 21.35398 -156.05259 17480 ft 391 kts 37°
2026-04-30 21:11 21.37558 -156.03456 18018 ft 395 kts 37°
2026-04-30 21:12 21.39742 -156.01633 18546 ft 399 kts 37°
2026-04-30 21:12 21.41938 -155.99800 19047 ft 402 kts 37°
2026-04-30 21:12 21.44154 -155.97949 19531 ft 404 kts 37°
2026-04-30 21:12 21.46379 -155.96088 20009 ft 407 kts 37°
2026-04-30 21:13 21.48624 -155.94211 20500 ft 410 kts 37°
2026-04-30 21:13 21.50878 -155.92324 20993 ft 413 kts 36°
2026-04-30 21:13 21.53154 -155.90420 21456 ft 416 kts 36°
2026-04-30 21:13 21.55450 -155.88498 21939 ft 419 kts 36°
2026-04-30 21:14 21.57754 -155.86568 22410 ft 422 kts 36°
2026-04-30 21:14 21.60075 -155.84625 22916 ft 424 kts 36°
2026-04-30 21:14 21.62407 -155.82670 23400 ft 427 kts 36°
2026-04-30 21:14 21.64754 -155.80702 23836 ft 430 kts 36°
2026-04-30 21:15 21.67122 -155.78714 24217 ft 433 kts 36°
2026-04-30 21:15 21.69494 -155.76722 24614 ft 435 kts 36°
2026-04-30 21:15 21.71888 -155.74711 25023 ft 437 kts 36°
2026-04-30 21:15 21.74288 -155.72695 25426 ft 439 kts 36°
2026-04-30 21:16 21.76706 -155.70661 25821 ft 442 kts 36°
2026-04-30 21:16 21.79131 -155.68622 26213 ft 444 kts 36°
2026-04-30 21:16 21.81570 -155.66567 26589 ft 446 kts 36°
2026-04-30 21:16 21.84019 -155.64506 26980 ft 449 kts 36°
2026-04-30 21:17 21.86481 -155.62432 27400 ft 450 kts 36°
2026-04-30 21:17 21.88952 -155.60351 27815 ft 452 kts 36°
2026-04-30 21:17 21.91441 -155.58253 28148 ft 455 kts 36°
2026-04-30 21:17 21.93940 -155.56145 28502 ft 458 kts 36°
2026-04-30 21:18 21.96453 -155.54024 28885 ft 460 kts 36°
2026-04-30 21:18 21.98982 -155.51891 29243 ft 463 kts 36°
2026-04-30 21:18 22.01518 -155.49749 29600 ft 465 kts 36°
2026-04-30 21:18 22.04070 -155.47593 29943 ft 467 kts 36°
2026-04-30 21:19 22.06629 -155.45431 30372 ft 467 kts 36°
2026-04-30 21:19 22.09183 -155.43271 30814 ft 465 kts 36°
2026-04-30 21:19 22.11723 -155.41121 31219 ft 464 kts 36°
2026-04-30 21:19 22.14258 -155.38976 31759 ft 461 kts 36°
2026-04-30 21:20 22.16779 -155.36842 32229 ft 459 kts 36°
2026-04-30 21:20 22.19291 -155.34712 32596 ft 459 kts 36°
2026-04-30 21:20 22.21803 -155.32580 32963 ft 459 kts 36°
2026-04-30 21:20 22.24314 -155.30450 33342 ft 459 kts 36°
2026-04-30 21:21 22.26821 -155.28322 33697 ft 460 kts 36°
2026-04-30 21:21 22.29347 -155.26179 33899 ft 463 kts 36°
2026-04-30 21:21 22.34407 -155.21882 34562 ft 462 kts 36°
2026-04-30 21:22 22.36934 -155.19733 34866 ft 462 kts 36°
2026-04-30 21:22 22.44429 -155.13356 35962 ft 456 kts 36°
2026-04-30 21:23 22.46919 -155.11234 36205 ft 457 kts 36°
2026-04-30 21:23 22.49419 -155.09106 36481 ft 456 kts 36°
2026-04-30 21:23 22.54412 -155.04849 37023 ft 457 kts 36°
2026-04-30 21:24 22.56901 -155.02725 37271 ft 457 kts 36°
2026-04-30 21:24 22.59365 -155.00621 37511 ft 457 kts 36°
2026-04-30 21:24 22.61852 -154.98496 37761 ft 457 kts 36°
2026-04-30 21:24 22.64351 -154.96361 38046 ft 456 kts 36°
2026-04-30 21:25 22.69308 -154.92121 38666 ft 453 kts 36°
2026-04-30 21:25 22.71777 -154.90008 38879 ft 453 kts 36°
2026-04-30 21:25 22.74253 -154.87889 39039 ft 453 kts 36°
2026-04-30 21:26 22.79211 -154.83641 39187 ft 453 kts 36°
2026-04-30 21:27 22.86595 -154.77304 39188 ft 450 kts 36°
2026-04-30 21:27 22.91509 -154.73084 39191 ft 450 kts 36°
2026-04-30 21:28 22.98759 -154.66709 39191 ft 447 kts 41°
2026-04-30 21:28 23.02726 -154.61547 39194 ft 450 kts 52°
2026-04-30 21:29 23.04516 -154.58751 39189 ft 451 kts 53°
2026-04-30 21:30 23.13134 -154.44503 39190 ft 451 kts 54°
2026-04-30 21:31 23.21791 -154.30234 39195 ft 455 kts 54°
2026-04-30 21:32 23.27028 -154.21606 39198 ft 456 kts 54°
2026-04-30 21:32 23.30520 -154.15841 39197 ft 456 kts 54°
2026-04-30 21:33 23.35750 -154.07186 39202 ft 456 kts 54°
2026-04-30 21:34 23.39221 -154.01435 39200 ft 453 kts 54°
2026-04-30 21:34 23.44398 -153.92848 39201 ft 455 kts 54°
2026-04-30 21:35 23.47866 -153.87082 39200 ft 455 kts 54°
2026-04-30 21:35 23.51335 -153.81310 39201 ft 455 kts 54°
2026-04-30 21:36 23.54800 -153.75541 39203 ft 455 kts 54°
2026-04-30 21:37 23.61725 -153.63992 39203 ft 453 kts 54°
2026-04-30 21:37 23.65163 -153.58246 39203 ft 452 kts 54°
2026-04-30 21:38 23.68592 -153.52510 39203 ft 452 kts 54°
2026-04-30 21:38 23.72025 -153.46762 39208 ft 452 kts 54°
2026-04-30 21:39 23.75453 -153.41012 39211 ft 452 kts 54°
2026-04-30 21:39 23.78895 -153.35239 39208 ft 455 kts 54°
2026-04-30 21:40 23.82352 -153.29461 39211 ft 453 kts 54°
2026-04-30 21:40 23.85789 -153.23719 39212 ft 451 kts 54°
2026-04-30 21:41 23.89219 -153.17981 39211 ft 451 kts 54°
2026-04-30 21:41 23.92651 -153.12231 39216 ft 451 kts 54°
2026-04-30 21:42 23.96085 -153.06470 39212 ft 454 kts 54°
2026-04-30 21:42 23.99530 -153.00684 39212 ft 454 kts 54°
2026-04-30 21:43 24.02973 -152.94893 39214 ft 453 kts 54°
2026-04-30 21:43 24.06389 -152.89140 39214 ft 450 kts 54°
2026-04-30 21:44 24.09793 -152.83402 39215 ft 449 kts 54°
2026-04-30 21:44 24.13196 -152.77661 39217 ft 451 kts 54°
2026-04-30 21:45 24.16593 -152.71922 39220 ft 453 kts 54°
2026-04-30 21:45 24.20032 -152.66105 39218 ft 452 kts 55°
2026-04-30 21:46 24.23447 -152.60321 39224 ft 452 kts 55°
2026-04-30 21:46 24.26827 -152.54591 39221 ft 449 kts 55°
2026-04-30 21:47 24.30214 -152.48842 39224 ft 449 kts 55°
2026-04-30 21:47 24.33609 -152.43073 39224 ft 451 kts 55°
2026-04-30 21:48 24.37006 -152.37292 39221 ft 451 kts 55°
2026-04-30 21:48 24.40401 -152.31510 39225 ft 451 kts 54°
2026-04-30 21:49 24.43796 -152.25719 39225 ft 451 kts 55°
2026-04-30 21:49 24.47187 -152.19928 39228 ft 450 kts 55°
2026-04-30 21:50 24.50578 -152.14136 39225 ft 452 kts 55°
2026-04-30 21:50 24.53973 -152.08325 39228 ft 452 kts 55°
2026-04-30 21:51 24.57362 -152.02512 39227 ft 452 kts 55°
2026-04-30 21:51 24.60754 -151.96692 39225 ft 452 kts 55°
2026-04-30 21:52 24.64148 -151.90863 39229 ft 455 kts 55°
2026-04-30 21:52 24.67570 -151.84981 39226 ft 458 kts 56°
2026-04-30 21:53 24.70996 -151.79081 39230 ft 457 kts 55°
2026-04-30 21:53 24.74416 -151.73183 39229 ft 457 kts 55°
2026-04-30 21:54 24.77817 -151.67313 39233 ft 458 kts 56°
2026-04-30 21:54 24.80680 -151.62365 39233 ft 458 kts 55°
2026-04-30 21:55 24.84652 -151.55493 39231 ft 458 kts 55°
2026-04-30 21:55 24.88063 -151.49583 39233 ft 457 kts 56°
2026-04-30 21:56 24.91463 -151.43681 39233 ft 456 kts 56°
2026-04-30 21:56 24.94287 -151.38776 39231 ft 456 kts 56°
2026-04-30 21:57 24.97682 -151.32875 39246 ft 456 kts 56°
2026-04-30 21:57 25.01085 -151.26955 39240 ft 458 kts 56°
2026-04-30 21:58 25.04488 -151.21023 39238 ft 458 kts 55°
2026-04-30 21:58 25.07891 -151.15080 39236 ft 457 kts 56°
2026-04-30 21:59 25.11279 -151.09161 39238 ft 456 kts 56°
2026-04-30 22:00 25.16347 -151.00291 39232 ft 456 kts 56°
2026-04-30 22:00 25.21435 -150.91376 39233 ft 457 kts 56°
2026-04-30 22:01 25.24819 -150.85430 39245 ft 457 kts 56°
2026-04-30 22:01 25.28204 -150.79479 39232 ft 458 kts 56°
2026-04-30 22:02 25.31583 -150.73534 39245 ft 458 kts 56°
2026-04-30 22:02 25.34982 -150.67540 39247 ft 461 kts 55°
2026-04-30 22:03 25.38385 -150.61530 39244 ft 461 kts 56°
2026-04-30 22:03 25.41786 -150.55519 39240 ft 461 kts 55°
2026-04-30 22:04 25.45164 -150.49542 39246 ft 461 kts 56°
2026-04-30 22:05 25.50247 -150.40536 39245 ft 460 kts 56°
2026-04-30 22:05 25.53642 -150.34510 39246 ft 461 kts 56°
2026-04-30 22:06 25.57038 -150.28475 39248 ft 462 kts 56°
2026-04-30 22:06 25.62124 -150.19416 39249 ft 462 kts 56°
2026-04-30 22:07 25.65515 -150.13371 39250 ft 463 kts 56°
2026-04-30 22:07 25.68909 -150.07313 39246 ft 462 kts 56°
2026-04-30 22:08 25.72291 -150.01268 39248 ft 462 kts 56°
2026-04-30 22:08 25.75672 -149.95218 39252 ft 461 kts 56°
2026-04-30 22:09 25.79052 -149.89158 39248 ft 462 kts 56°
2026-04-30 22:09 25.82431 -149.83094 39251 ft 463 kts 56°
2026-04-30 22:10 25.85819 -149.77006 39247 ft 463 kts 56°
2026-04-30 22:10 25.89193 -149.70932 39246 ft 461 kts 56°
2026-04-30 22:11 25.94239 -149.61833 39255 ft 461 kts 56°
2026-04-30 22:12 25.97583 -149.55796 39251 ft 463 kts 56°
2026-04-30 22:12 26.00980 -149.49655 39247 ft 464 kts 57°
2026-04-30 22:13 26.04331 -149.43589 39249 ft 463 kts 57°
2026-04-30 22:13 26.07689 -149.37499 39255 ft 461 kts 57°
2026-04-30 22:14 26.11037 -149.31422 39260 ft 460 kts 57°
2026-04-30 22:14 26.14387 -149.25333 39254 ft 463 kts 57°
2026-04-30 22:15 26.17747 -149.19218 39259 ft 464 kts 57°